Wooster, OH

4:12 PM EDT on September 21, 2017 (GMT -0400)
Wayne County

Weather History for KBJJ - June, 2013

Change the Weather History Date:

Tuesday, June 11, 2013

  Actual Average Record
Temperature  
Mean Temperature 70 °F -  
Max Temperature 78 °F 73 °F 93 °F (2016)
Min Temperature 62 °F 55 °F 43 °F (2006)
Cooling Degree Days 5    
Growing Degree Days 20 (Base 50)    
Moisture  
Dew Point 63 °F    
Average Humidity 84    
Maximum Humidity 94    
Minimum Humidity 62    
Precipitation  
Precipitation 0.06 in - - ()
Sea Level Pressure  
Sea Level Pressure 29.88 in    
Wind  
Wind Speed 8 mph (WNW)    
Max Wind Speed 14 mph    
Max Gust Speed 23 mph    
Visibility 6 miles    
Events Rain    
Averages and records for this station are not official NWS values.
T = Trace of Precipitation, MM = Missing Value Source: NWS Daily Summary

Daily Weather History Graph

Daily Weather History Graph

Search for Another Location

Airport or City:

Trip Planner

Search our weather history database for the weather conditions in past years. The results will help you decide how hot, cold, wet, or windy it might be!

Date:

Astronomy

Jun. 11, 2013 Rise Set
Actual Time 5:55 AM EDT 8:59 PM EDT
Civil Twilight 5:22 AM EDT 9:32 PM EDT
Nautical Twilight 4:39 AM EDT 10:15 PM EDT
Astronomical Twilight 3:49 AM EDT 11:05 PM EDT
Moon 8:38 AM EDT (6/11) 11:00 PM EDT (6/11)
Length of Visible Light 16h 10m
Length of Day
15h 04m
Waxing Crescent, 8% of the Moon is Illuminated
Jun 11
Waxing Crescent
Jun 16
First Quarter
Jun 23
Full
Jun 30
Last Quarter
Jul 8
New

Hourly Weather History & Observations

Time (EDT) Temp. Dew Point Humidity Pressure Visibility Wind Dir Wind Speed Gust Speed Precip Events Conditions
12:56 AM 63.0 °F 61.0 °F 93% 29.80 in 10.0 mi SSW 6.9 mph - 0.00 in   Overcast
1:56 AM 63.0 °F 61.0 °F 93% 29.80 in 9.0 mi SW 5.8 mph - N/A   Overcast
2:56 AM 63.0 °F 61.0 °F 93% 29.81 in 7.0 mi SW 5.8 mph - 0.00 in   Overcast
3:56 AM 63.0 °F 61.0 °F 93% 29.80 in 6.0 mi SW 5.8 mph - N/A   Overcast
4:53 AM 62.6 °F 60.8 °F 94% 29.82 in 6.0 mi SW 4.6 mph - N/A   Overcast
4:56 AM 63.0 °F 61.0 °F 93% 29.81 in 5.0 mi WSW 4.6 mph - N/A   Overcast
5:03 AM 62.6 °F 60.8 °F 94% 29.82 in 6.0 mi WSW 3.5 mph - N/A   Overcast
5:56 AM 64.9 °F 63.0 °F 93% 29.82 in 5.0 mi West 9.2 mph - N/A   Overcast
6:56 AM 64.9 °F 63.0 °F 93% 29.84 in 3.0 mi West 6.9 mph - 0.00 in   Overcast
7:28 AM 64.4 °F 62.6 °F 94% 29.87 in 2.0 mi WNW 5.8 mph - 0.00 in Rain Light Rain
7:37 AM 64.4 °F 62.6 °F 94% 29.87 in 2.0 mi WNW 6.9 mph - 0.01 in Rain Light Rain
7:56 AM 66.0 °F 63.0 °F 90% 29.86 in 3.0 mi WNW 8.1 mph - 0.01 in   Overcast
8:04 AM 66.2 °F 62.6 °F 88% 29.88 in 2.5 mi WNW 11.5 mph - N/A   Overcast
8:11 AM 64.4 °F 62.6 °F 94% 29.88 in 2.5 mi NW 10.4 mph - N/A   Overcast
8:22 AM 66.2 °F 62.6 °F 88% 29.89 in 3.0 mi NW 9.2 mph - N/A   Overcast
8:35 AM 66.2 °F 62.6 °F 88% 29.89 in 1.8 mi NNW 9.2 mph - 0.02 in Rain Light Rain
8:48 AM 64.4 °F 62.6 °F 94% 29.90 in 3.0 mi NNW 11.5 mph - 0.04 in Rain Light Rain
8:56 AM 64.9 °F 63.0 °F 93% 29.89 in 5.0 mi NNW 12.7 mph - 0.04 in   Overcast
9:38 AM 64.4 °F 62.6 °F 94% 29.91 in 2.5 mi NNW 13.8 mph 21.9 mph 0.00 in Rain Light Rain
9:56 AM 64.9 °F 62.1 °F 90% 29.89 in 7.0 mi NW 12.7 mph - 0.00 in   Overcast
10:12 AM 66.2 °F 62.6 °F 88% 29.91 in 6.0 mi NNW 11.5 mph - N/A   Overcast
10:24 AM 66.2 °F 62.6 °F 88% 29.91 in 7.0 mi NW 10.4 mph - N/A   Overcast
10:44 AM 66.2 °F 62.6 °F 88% 29.91 in 8.0 mi NW 8.1 mph - N/A   Overcast
10:56 AM 68.0 °F 63.0 °F 84% 29.90 in 8.0 mi NW 10.4 mph - N/A   Overcast
11:22 AM 68.0 °F 62.6 °F 83% 29.92 in 10.0 mi NW 11.5 mph - N/A   Overcast
11:33 AM 69.8 °F 62.6 °F 78% 29.92 in 10.0 mi NW 11.5 mph - N/A   Overcast
11:42 AM 69.8 °F 62.6 °F 78% 29.92 in 9.0 mi NW 10.4 mph - N/A   Overcast
11:56 AM 71.1 °F 63.0 °F 75% 29.91 in 10.0 mi NNW 10.4 mph - N/A   Mostly Cloudy
12:05 PM 71.6 °F 62.6 °F 73% 29.92 in 10.0 mi NW 9.2 mph - N/A   Mostly Cloudy
12:56 PM 73.0 °F 63.0 °F 71% 29.91 in 8.0 mi NW 10.4 mph 19.6 mph N/A   Mostly Cloudy
1:56 PM 73.9 °F 63.0 °F 68% 29.91 in 9.0 mi NW 12.7 mph 19.6 mph N/A   Mostly Cloudy
2:56 PM 75.0 °F 63.0 °F 66% 29.91 in 9.0 mi NW 12.7 mph 23.0 mph 0.01 in   Mostly Cloudy
3:56 PM 75.9 °F 63.0 °F 64% 29.90 in 9.0 mi West 11.5 mph - N/A   Mostly Cloudy
4:56 PM 78.1 °F 64.0 °F 62% 29.89 in 9.0 mi WNW 11.5 mph - N/A   Scattered Clouds
5:56 PM 78.1 °F 64.0 °F 62% 29.88 in 9.0 mi WNW 11.5 mph - N/A   Mostly Cloudy
6:56 PM 77.0 °F 63.0 °F 62% 29.88 in 8.0 mi West 10.4 mph - N/A   Partly Cloudy
7:56 PM 75.0 °F 64.0 °F 69% 29.88 in 7.0 mi West 4.6 mph - N/A   Clear
8:56 PM 73.0 °F 64.0 °F 73% 29.88 in 8.0 mi SW 3.5 mph - N/A   Scattered Clouds
9:56 PM 72.0 °F 64.9 °F 78% 29.88 in 8.0 mi Calm Calm - N/A   Scattered Clouds
10:56 PM 71.1 °F 64.9 °F 81% 29.88 in 8.0 mi Calm Calm - 0.00 in   Partly Cloudy
11:56 PM 68.0 °F 64.0 °F 87% 29.88 in 6.0 mi WSW 3.5 mph - N/A   Clear